Regional Weather Roundup
Issued by NWS Goodland, KS

Home | Current Version | Previous Version | Text Only | Print | Product List | Glossary On
Versions: 1 2 3 4 5 6 7 8 9 10 11 12 13 14 15 16 17 18 19 20 21 22 23 24 25 26 27 28 29 30 31 32 33 34 35 36 37 38 39 40 41 42 43 44 45 46 47 48 49 50
000
ASUS43 KGLD 211208
RWRGLD

GOODLAND FORECAST AREA HOURLY WEATHER ROUNDUP
NATIONAL WEATHER SERVICE GOODLAND KS
500 AM MST TUE NOV 21 2017

...OFFICIAL OBSERVATIONS...

CITY           SKY/WX    TMP DP  RH WIND       PRES   REMARKS
GOODLAND KS    CLOUDY    53  30  41 N14       29.97R
HILL CITY KS   PTCLDY    44  25  47 NW5       29.93R
IMPERIAL NEB   PTCLDY    42  24  49 NE25G35   30.02R
MCCOOK NEB     CLOUDY    46  26  45 N22       29.98R
AKRON CO       CLOUDY    46  27  47 N12       30.05R
BURLINGTON CO  CLOUDY    51  24  34 NW12      30.01R
LIMON CO       CLOUDY    45  22  40 N10       30.05R
$$

...UNOFFICIAL OBSERVATIONS...

CITY           SKY/WX    TMP DP  RH WIND       PRES   REMARKS
COLBY KS       CLOUDY    48  32  53 W9        29.96R
LENORA KS        N/A     45  32  60 N6          N/A
NORTON KS      MOCLDY    45  19  36 N12G17    29.96
SHARON SPRINGS   N/A     49  28  43 NW14        N/A
TRIBUNE KS     CLOUDY    46  23  39 NW12      29.99R
TRENTON NEB      N/A     45  32  60 N15         N/A
YUMA CO        FAIR      46  28  49 NW13      30.02R
$$



USA.gov is the U.S. government's official web portal to all federal, state and local government web resources and services.